Location: Central Falls
(41.8900°N, 71.3929°W)
Time: 08:15:40
(UTC+00:00)

Tiros 1 despin weight - Pass Details

Date: 10 December 2023
Orbit: 581 x 624 km, 48.2° (Epoch: 29 February)

Event Time Altitude Azimuth Distance (km) Brightness Sun altitude
Rises 19:55:27 0° 218° (SW) 2,824 ? 10.8°
Reaches altitude 10° 19:57:51 10° 210° (SSW) 1,917 ? 10.5°
Maximum altitude 20:01:54 38° 142° (SE) 907 ? 9.9°
Drops below altitude 10° 20:05:57 10° 74° (ENE) 1,905 ? 9.4°
Sets 20:08:19 0° 67° (ENE) 2,803 ? 9.0°
